Wind_Speed
10 10 9 9 9 9 9 10 11 11 12 13 14 14 14 14 14 13 13 13 14 14 14 14 15 14 14 14 14 14 13 13 13 13 14 14 14 13 13 14 15 15 16 15
9 8 9 8 7 8 9 9 9 10 11 13 13 12 13 13 13 13 13 13 12 12 13 13 12 12 12 12 12 12 12 11 12 13 13 13 13 13 13 14 15 14 14 14
8 7 7 7 6 6 7 8 9 10 11 11 11 11 11 11 11 12 12 11 10 11 11 11 11 10 10 10 10 10 10 10 11 11 11 11 11 11 12 13 13 13 13 14
7 6 6 6 6 6 7 9 10 11 11 10 10 10 10 11 10 10 9 9 8 8 8 8 9 8 8 8 9 9 10 10 11 10 10 10 9 10 11 12 13 14 14 15
6 6 6 6 6 6 7 9 10 10 10 9 10 10 10 10 10 9 8 7 6 6 6 6 5 5 6 6 7 8 9 9 10 9 9 8 9 10 11 12 13 13 14 15
6 5 5 6 7 8 8 10 9 9 9 9 10 9 8 8 7 6 5 4 4 5 4 4 4 4 5 6 6 6 7 7 8 8 8 8 9 9 10 11 12 13 13 15
5 5 6 7 7 7 8 8 8 8 8 8 9 9 8 6 5 4 4 4 4 4 4 4 4 4 4 5 5 5 6 6 6 6 7 8 8 9 10 11 12 13 14 15
5 5 6 7 7 7 7 7 8 7 8 7 7 8 7 5 5 5 4 4 3 3 3 2 2 3 3 4 4 4 5 5 5 6 6 7 9 10 11 12 12 13 14 16
6 6 7 7 7 7 7 7 7 7 7 7 7 6 6 5 5 5 4 3 3 3 2 1 1 2 2 3 3 3 3 4 5 6 6 7 9 9 10 11 12 14 15 16
7 7 7 8 8 8 8 8 8 7 7 7 7 6 5 5 5 4 3 2 2 2 1 1 1 1 2 2 3 3 3 4 5 5 7 8 9 9 10 11 13 14 15 16
7 7 8 8 8 7 7 7 7 6 6 6 7 6 5 5 4 4 3 2 2 1 1 1 0 1 2 2 2 3 4 4 5 6 8 8 9 10 11 12 13 14 15 16
7 8 9 8 8 8 7 7 6 6 6 6 6 5 4 3 3 2 2 2 2 1 1 1 1 1 2 3 2 3 4 5 6 7 8 8 9 10 11 12 13 14 16 17
9 9 9 8 8 8 8 7 6 6 5 5 5 4 3 3 3 2 2 2 2 2 2 1 2 2 2 3 3 4 4 5 6 7 8 9 10 10 11 12 14 15 17 18
9 10 10 9 9 8 8 7 6 5 5 5 4 4 3 4 3 3 2 2 2 2 1 2 2 2 2 3 3 4 5 6 7 8 8 9 10 10 11 12 14 16 17 18
10 10 10 9 9 9 8 7 6 6 6 6 5 5 4 4 4 3 3 3 3 2 2 2 2 2 2 3 3 4 6 7 7 8 8 9 10 11 12 14 16 17 18 20
10 10 9 9 9 8 8 6 6 6 6 6 6 6 6 5 5 4 4 4 3 3 3 2 3 3 3 3 4 5 6 7 7 8 9 10 10 12 14 15 17 18 19 20
11 11 10 10 9 8 8 7 8 8 7 7 8 8 7 6 5 5 5 5 4 3 3 3 3 3 3 4 4 5 6 7 7 8 9 10 11 13 15 16 18 19 20 21
11 11 11 10 10 9 8 9 8 8 8 8 8 9 9 8 7 7 6 6 5 4 4 3 3 3 3 4 4 5 6 6 7 8 9 10 12 14 16 18 19 20 21 22
11 11 11 11 11 10 10 10 10 9 9 9 9 9 8 8 7 7 6 6 5 5 4 4 4 4 4 3 4 4 5 6 7 8 10 11 13 15 17 19 20 21 21 22
12 11 11 11 11 11 11 11 11 10 10 10 9 9 8 8 8 8 7 7 7 6 5 4 4 4 4 4 4 4 5 6 8 9 11 12 14 16 17 19 20 21 22 23
13 12 12 12 12 12 11 11 11 10 10 10 9 8 7 7 8 8 8 8 8 7 6 5 4 4 4 4 5 5 6 7 9 10 11 13 14 16 18 19 20 21 23 23
13 12 12 12 12 11 11 11 11 11 10 9 9 9 8 7 8 8 8 8 7 7 6 5 4 4 4 4 5 6 6 8 9 10 11 13 15 16 18 19 20 22 23 23
13 12 12 12 12 12 11 11 11 10 10 9 9 9 8 7 7 8 8 8 7 6 6 5 4 4 4 5 5 6 7 8 9 10 12 13 14 16 18 19 20 22 23 24
15 14 13 12 12 12 12 11 11 10 10 9 9 9 8 7 6 7 8 8 7 6 6 5 4 4 4 5 5 6 7 8 9 10 12 13 15 16 17 19 21 22 24 25
15 15 14 14 13 13 12 11 10 10 9 8 8 8 8 7 6 6 7 7 7 6 5 5 4 3 4 4 5 6 7 8 9 10 12 13 15 16 17 19 21 23 25 26
16 15 15 14 14 13 12 11 10 10 9 8 8 8 7 7 7 7 7 7 7 7 6 5 4 4 4 4 4 5 7 8 9 11 12 13 15 16 18 20 22 23 25 26
18 17 16 15 15 14 13 12 11 10 9 9 9 9 8 8 7 7 7 7 7 7 6 5 4 4 4 4 4 5 7 8 10 11 12 14 15 17 19 21 22 24 25 27
Wind_Direction
301 293 289 277 274 273 281 283 288 293 289 289 292 291 296 297 293 289 287 283 275 269 268 267 268 268 268 269 268 268 271 274 277 283 286 287 288 294 299 301 301 301 303 303
302 301 298 287 279 273 278 282 291 298 297 299 296 294 298 299 298 294 289 284 277 270 269 268 267 264 266 267 269 273 273 275 280 283 283 285 291 296 299 302 305 306 309 310
306 309 300 288 279 282 283 291 298 305 309 306 307 304 306 306 303 300 298 291 282 275 270 266 264 263 266 266 270 274 276 278 283 284 286 291 295 298 303 307 308 311 314 315
306 300 302 301 295 293 291 295 303 309 309 310 315 317 314 310 304 302 303 299 289 284 279 270 262 261 263 266 269 271 275 280 283 283 289 292 299 309 312 312 311 310 313 316
317 310 303 302 301 297 295 298 300 304 306 310 314 316 313 307 303 302 302 296 293 293 290 289 269 259 268 275 274 272 274 280 285 288 290 296 306 314 315 314 313 313 314 316
317 308 305 302 301 298 298 300 302 304 310 314 315 317 317 308 309 308 303 297 299 306 293 282 270 267 274 279 278 282 283 285 288 289 292 299 309 313 316 317 316 317 318 321
311 304 304 301 304 303 300 299 306 308 315 321 318 319 326 333 337 331 324 309 305 308 304 291 278 271 275 283 290 293 298 297 295 291 294 303 309 314 316 320 321 322 324 324
310 313 305 297 301 304 310 306 311 316 320 323 322 325 333 336 340 340 329 317 312 309 307 296 284 280 287 294 297 300 305 307 307 308 311 314 317 317 318 322 324 325 327 326
303 301 299 295 300 308 315 313 314 313 314 321 326 326 331 333 333 334 326 323 327 321 318 303 307 306 308 318 320 321 323 323 321 321 320 321 322 323 322 323 326 327 329 329
302 301 295 291 295 303 313 311 311 307 308 314 319 322 326 328 326 328 334 332 325 322 331 1 9 342 344 338 346 348 340 335 331 329 326 326 327 329 329 328 328 329 330 330
300 294 288 288 293 304 310 309 304 300 307 312 314 316 322 316 314 318 332 327 314 296 324 348 344 336 335 341 343 343 341 337 335 335 334 333 333 333 332 332 333 334 336 336
295 292 292 293 294 300 302 302 300 295 300 309 309 307 315 317 312 313 317 313 310 325 340 341 348 340 348 350 343 339 339 342 342 340 343 344 342 339 339 338 338 338 339 341
292 289 290 292 294 295 292 289 289 289 291 298 298 296 303 311 301 298 299 316 314 322 334 351 1 346 342 345 347 351 351 350 351 350 349 347 345 343 343 342 342 341 340 340
291 288 286 287 290 290 286 284 276 276 282 285 281 284 298 306 294 287 277 301 300 302 315 334 344 341 339 347 354 357 356 355 356 355 351 350 350 350 347 346 344 343 343 343
287 287 286 283 281 283 281 279 274 272 273 270 266 269 277 289 290 277 262 280 285 283 281 295 334 346 350 353 355 358 358 356 357 357 355 355 354 353 350 348 347 345 345 343
287 287 284 277 275 276 277 273 273 273 264 260 258 257 265 271 269 262 258 260 263 278 282 287 310 323 331 341 346 347 350 352 353 354 353 354 356 355 353 351 349 347 345 344
284 283 280 275 269 268 268 269 271 269 262 256 253 249 252 258 257 253 253 249 250 260 269 277 291 304 321 333 335 337 343 346 348 350 351 353 354 353 351 350 350 349 347 347
279 277 273 268 263 264 265 266 268 264 258 254 252 251 251 252 250 246 245 238 241 254 261 269 284 300 317 325 326 330 335 340 344 347 348 350 350 351 352 350 350 349 349 348
272 270 269 265 262 264 264 263 264 261 256 254 256 256 255 253 246 247 246 244 251 262 266 269 279 289 300 310 315 321 330 339 343 344 345 347 349 350 351 351 351 351 351 350
266 267 269 266 265 266 263 261 261 258 256 254 255 253 251 247 244 244 245 247 254 261 264 265 267 276 286 294 304 315 327 337 342 343 345 346 348 350 350 350 350 350 350 349
261 263 265 263 264 264 261 257 256 256 255 252 250 247 245 242 242 242 244 246 248 252 253 254 261 269 278 287 295 304 316 328 335 339 341 343 345 347 348 348 349 349 349 350
257 256 259 257 255 257 256 253 252 251 251 249 243 241 239 238 239 241 239 241 242 240 242 246 254 266 281 291 296 302 312 321 329 333 336 338 341 344 346 347 348 349 350 351
254 255 256 251 248 250 249 249 248 247 247 246 244 239 235 239 239 238 237 238 238 233 233 235 245 259 276 293 303 309 314 318 323 328 332 335 339 342 344 346 348 349 349 349
251 251 251 248 243 242 241 242 244 244 243 241 237 234 234 237 237 236 234 231 232 228 227 232 245 262 278 292 305 314 320 323 326 329 333 336 338 340 343 345 347 348 348 348
248 246 245 243 237 235 236 234 234 236 236 234 232 232 232 231 227 229 229 226 223 221 223 228 241 266 281 292 306 318 326 330 334 337 339 339 340 342 344 346 346 346 347 347
242 240 239 237 232 229 228 228 229 232 233 231 229 229 233 231 226 225 227 223 220 222 224 228 243 264 277 290 305 319 327 331 334 337 339 340 341 343 344 345 345 345 346 347
240 237 234 232 228 224 226 226 225 227 229 230 228 228 232 230 227 223 223 222 219 223 226 230 240 255 271 290 308 322 331 335 338 338 339 339 340 342 343 344 344 345 345 346
Height
5784 5783 5782 5782 5781 5782 5782 5781 5781 5780 5779 5778 5776 5775 5774 5772 5771 5769 5768 5768 5767 5767 5768 5768 5768 5768 5768 5769 5769 5768 5768 5768 5767 5766 5765 5764 5763 5761 5760 5759 5756 5754 5752 5750
5781 5780 5779 5779 5779 5779 5779 5778 5778 5777 5776 5774 5773 5771 5770 5769 5767 5766 5765 5764 5763 5763 5764 5764 5764 5764 5765 5765 5765 5765 5764 5764 5763 5763 5762 5760 5759 5758 5757 5755 5753 5751 5749 5746
5779 5778 5778 5778 5777 5777 5777 5776 5775 5774 5774 5772 5770 5768 5767 5766 5764 5763 5762 5761 5760 5760 5760 5760 5760 5761 5761 5761 5761 5762 5762 5761 5760 5759 5758 5758 5756 5755 5754 5752 5750 5748 5745 5743
5777 5777 5776 5778 5775 5775 5775 5774 5773 5772 5770 5769 5767 5766 5764 5763 5762 5761 5759 5758 5758 5757 5757 5757 5757 5758 5758 5759 5759 5759 5759 5758 5757 5757 5756 5755 5753 5752 5751 5749 5747 5745 5743 5740
5775 5775 5775 5775 5774 5773 5773 5772 5771 5770 5769 5767 5766 5764 5763 5761 5759 5758 5758 5757 5756 5756 5755 5755 5755 5756 5756 5756 5756 5756 5756 5756 5755 5754 5753 5752 5751 5749 5748 5746 5744 5742 5740 5737
5774 5773 5773 5774 5772 5772 5772 5771 5769 5768 5767 5765 5764 5763 5762 5759 5757 5757 5756 5756 5755 5755 5754 5754 5754 5754 5755 5755 5754 5754 5754 5753 5753 5752 5751 5750 5749 5747 5745 5744 5741 5739 5737 5734
5772 5772 5771 5771 5770 5771 5771 5770 5767 5766 5765 5764 5762 5761 5760 5758 5757 5756 5755 5755 5755 5754 5753 5753 5753 5753 5753 5753 5753 5752 5752 5751 5751 5750 5749 5748 5747 5745 5743 5741 5739 5736 5734 5731
5771 5771 5772 5769 5769 5769 5768 5766 5765 5765 5764 5762 5761 5760 5759 5758 5757 5755 5755 5754 5754 5753 5752 5752 5752 5752 5752 5752 5751 5750 5750 5749 5749 5748 5747 5746 5745 5743 5741 5739 5736 5734 5731 5728
5770 5771 5769 5767 5767 5766 5765 5765 5764 5763 5762 5761 5760 5759 5758 5757 5756 5755 5754 5754 5753 5753 5752 5752 5752 5751 5751 5751 5750 5749 5749 5748 5747 5746 5745 5744 5743 5741 5739 5737 5734 5731 5728 5725
5768 5767 5766 5766 5765 5765 5764 5764 5763 5762 5761 5760 5759 5758 5757 5757 5756 5755 5754 5754 5754 5753 5752 5752 5751 5751 5751 5750 5749 5749 5748 5747 5746 5745 5744 5742 5741 5739 5737 5734 5731 5728 5725 5722
5766 5766 5765 5764 5763 5763 5763 5762 5761 5760 5760 5759 5758 5757 5756 5756 5755 5755 5754 5754 5754 5753 5753 5752 5752 5751 5751 5750 5749 5748 5747 5746 5745 5744 5742 5741 5739 5737 5734 5732 5729 5726 5723 5720
5764 5763 5762 5762 5761 5761 5761 5760 5760 5759 5758 5758 5757 5756 5755 5755 5755 5754 5754 5754 5754 5753 5752 5752 5751 5751 5750 5749 5749 5748 5747 5745 5744 5743 5741 5739 5737 5735 5733 5730 5727 5724 5721 5717
5761 5760 5760 5760 5759 5759 5759 5759 5758 5758 5757 5757 5756 5755 5755 5755 5754 5754 5754 5754 5753 5753 5752 5752 5751 5750 5750 5749 5748 5747 5746 5745 5743 5742 5740 5738 5736 5733 5731 5729 5726 5723 5719 5715
5758 5758 5758 5757 5757 5757 5757 5756 5756 5756 5755 5755 5755 5754 5754 5754 5753 5753 5753 5753 5753 5752 5752 5751 5751 5750 5750 5749 5748 5747 5746 5744 5743 5741 5739 5737 5735 5732 5730 5727 5724 5721 5717 5713
5756 5755 5755 5755 5755 5755 5755 5754 5754 5754 5754 5753 5753 5753 5753 5753 5753 5752 5752 5752 5752 5752 5751 5751 5750 5750 5749 5748 5747 5746 5745 5744 5742 5740 5738 5736 5734 5732 5729 5726 5722 5719 5715 5711
5753 5753 5753 5753 5753 5753 5753 5753 5752 5752 5752 5752 5752 5752 5752 5752 5752 5751 5751 5751 5751 5751 5751 5750 5750 5749 5748 5748 5747 5746 5745 5743 5742 5740 5738 5736 5733 5731 5728 5725 5721 5717 5713 5709
5750 5750 5750 5750 5750 5750 5750 5750 5750 5750 5750 5750 5750 5750 5750 5750 5750 5750 5750 5750 5750 5750 5750 5750 5749 5748 5748 5747 5746 5745 5744 5743 5741 5739 5737 5735 5733 5730 5727 5723 5719 5715 5711 5706
5746 5746 5746 5747 5747 5747 5747 5747 5747 5747 5747 5747 5747 5748 5748 5748 5748 5748 5749 5749 5749 5749 5749 5748 5748 5747 5747 5746 5745 5744 5743 5742 5740 5739 5737 5734 5732 5729 5725 5722 5718 5713 5709 5704
5743 5743 5743 5743 5744 5744 5744 5744 5744 5745 5745 5745 5745 5745 5745 5746 5746 5746 5747 5747 5747 5747 5747 5747 5746 5746 5745 5745 5744 5743 5742 5741 5739 5738 5736 5733 5730 5727 5724 5720 5716 5712 5707 5703
5739 5739 5739 5740 5740 5740 5740 5741 5741 5741 5742 5742 5742 5742 5743 5743 5744 5744 5745 5745 5746 5746 5745 5745 5745 5745 5744 5744 5743 5742 5741 5740 5738 5737 5735 5732 5729 5726 5723 5719 5715 5710 5706 5701
5735 5735 5735 5736 5736 5736 5736 5737 5737 5738 5738 5739 5739 5740 5740 5740 5741 5741 5742 5743 5743 5743 5743 5743 5743 5743 5743 5742 5742 5741 5740 5739 5737 5735 5733 5730 5728 5725 5721 5717 5713 5709 5704 5699
5730 5730 5731 5731 5732 5732 5733 5733 5734 5734 5735 5736 5736 5737 5737 5738 5738 5739 5740 5740 5741 5741 5741 5741 5741 5741 5741 5740 5740 5739 5738 5737 5735 5733 5731 5729 5726 5723 5719 5716 5712 5707 5703 5698
5726 5726 5726 5727 5727 5728 5729 5730 5731 5731 5732 5733 5733 5734 5735 5735 5735 5736 5737 5738 5738 5738 5738 5739 5739 5739 5739 5739 5738 5737 5736 5735 5733 5731 5729 5727 5724 5721 5718 5714 5710 5706 5701 5696
5721 5721 5722 5723 5724 5725 5726 5727 5728 5728 5729 5729 5730 5731 5732 5733 5733 5734 5734 5735 5735 5736 5736 5737 5737 5737 5737 5737 5736 5735 5734 5733 5731 5729 5727 5725 5722 5719 5716 5712 5708 5704 5699 5694
5715 5717 5718 5719 5720 5721 5722 5724 5725 5725 5726 5727 5728 5729 5730 5730 5731 5732 5732 5733 5733 5734 5735 5735 5736 5736 5735 5735 5734 5734 5733 5731 5730 5728 5726 5723 5721 5718 5714 5710 5706 5702 5697 5692
5710 5712 5713 5714 5716 5717 5719 5720 5722 5723 5724 5725 5726 5727 5727 5728 5729 5730 5730 5731 5732 5732 5733 5734 5734 5734 5734 5734 5733 5732 5731 5730 5728 5726 5724 5722 5719 5716 5712 5708 5704 5699 5694 5689
5705 5706 5708 5710 5712 5714 5715 5717 5719 5720 5721 5723 5724 5724 5725 5726 5727 5728 5729 5729 5730 5730 5731 5732 5732 5733 5733 5732 5732 5731 5730 5728 5727 5725 5723 5720 5717 5714 5710 5706 5702 5697 5692 5687